Skip Page Navigation
NASA JPL Caltech
NASA Logo - Jet Propulsion Laboratory + View the NASA Portal
+ Near-Earth Object (NEO) Program
Search JPL
JPL Home Earth Solar System Stars & Galaxies Technology
JPL Solar System Dynamics
BODIES ORBITS EPHEMERIDES TOOLS PHYSICAL DATA DISCOVERY FAQ SITE MAP
JPL Small-Body Database Browser
Search: [ help ]  
20517 Judycrystal (1999 RB35)
Classification: Main-belt Asteroid          SPK-ID: 2020517
Ephemeris | Orbit Diagram | Orbital Elements | Physical Parameters | Discovery Circumstances | Close-Approach Data ]

[ show orbit diagram ]
Orbital Elements at Epoch 2457600.5 (2016-Jul-31.0) TDB
Reference: JPL 11 (heliocentric ecliptic J2000)
 Element Value Uncertainty (1-sigma)   Units 
e .04119415889008166 7.3957e-08  
a 2.648987163103228 2.571e-08 au
q 2.539864365008567 1.8492e-07 au
i 21.30554374982256 9.8181e-06 deg
node 291.06518073 2.5017e-05 deg
peri 135.5902559510903 0.00017279 deg
M 264.0626929780295 0.00016706 deg
tp 2458020.165463485178
(2017-Sep-23.66546349)
0.00073134 JED
period 1574.773897083285
4.31
2.2927e-05
6.277e-08
d
yr
n .2286042464043718 3.3282e-09 deg/d
Q 2.758109961197889 2.677e-08 au
  Orbit Determination Parameters
   # obs. used (total)      510  
   data-arc span      14266 days (39.06 yr)  
   first obs. used      1976-05-29  
   last obs. used      2015-06-20  
   planetary ephem.      DE431  
   SB-pert. ephem.      SB431-BIG16  
   condition code      0  
   fit RMS      .68624  
   data source      ORB  
   producer      Otto Matic  
   solution date      2016-Feb-25 19:29:06  

Additional Information
 Earth MOID = 1.57519 au 
 Jupiter MOID = 2.42748 au 
 T_jup = 3.293 
[ show covariance matrix ]

Ephemeris | Orbit Diagram | Orbital Elements | Physical Parameters | Discovery Circumstances | Close-Approach Data ]

Physical Parameter Table
Parameter Symbol Value Units Sigma Reference Notes
absolute magnitude H 14.2 mag n/a MPO250415  

20517 Judycrystal           Discovered 1999 Sept. 11 by L. Robinson at Sunflower Observatory.
Judy Crystal (Andrews) Robinson (b. 1949) is the wife of the discoverer.
NOTE: some special characters may not display properly (any characters within {} are an attempt to place the proper accent above a character)
Reference: 20010309/MPCPages.arcLast Updated: 2009-05-11

[ show close-approach data ]
Ephemeris | Orbit Diagram | Orbital Elements | Physical Parameters | Discovery Circumstances | Close-Approach Data ]
ABOUT SSD CREDITS/AWARDS PRIVACY/COPYRIGHT GLOSSARY LINKS
FirstGov 2016-Apr-29 21:40 UT
(server date/time)  
NASA Home Page
Site Manager:   Ryan S. Park
Webmaster  Alan B. Chamberlin